Location: Unspecified
(0.0000°N, 0.0000°E)
Time: 07:21:58
(UTC-05:00)

Hubble Space Telescope - Visible Passes

Search period start: 06 June 2020 00:00
Search period end: 16 June 2020 00:00
Orbit: 536 x 540 km, 28.5° (Epoch: 05 June)

Date Brightness Start Highest point End Pass type
(mag) Time Alt. Az. Time Alt. Az. Time Alt. Az.
06 Jun 3.1 14:00:02 10° N 14:01:45 12° NNE 14:03:28 10° NE visible
06 Jun 4.0 15:38:53 10° NW 15:39:09 12° NW 15:39:09 12° NW visible
07 Jun 2.9 13:48:27 10° NNW 13:51:07 17° NNE 13:53:48 10° ENE visible
07 Jun 3.6 15:28:11 10° WNW 15:29:07 16° WNW 15:29:07 16° WNW visible
08 Jun 2.5 13:37:13 10° NNW 13:40:29 22° NNE 13:43:46 10° E visible
08 Jun 3.2 15:17:35 10° WNW 15:19:08 21° WNW 15:19:08 21° WNW visible
09 Jun 2.0 13:26:10 10° NNW 13:29:50 31° NNE 13:33:31 10° E visible
09 Jun 2.8 15:07:06 10° W 15:09:10 25° W 15:09:10 25° W visible
10 Jun 2.6 14:56:45 10° W 14:59:13 24° WSW 14:59:13 24° WSW visible
11 Jun 2.7 14:46:34 10° WSW 14:49:16 20° SW 14:49:16 20° SW visible
11 Jun 3.1 23:21:34 13° SSE 23:21:57 13° SSE 23:23:54 10° SE visible
12 Jun 3.0 14:36:37 10° WSW 14:39:02 15° SSW 14:39:20 15° SSW visible
12 Jun 2.9 23:11:38 18° SE 23:11:38 18° SE 23:14:09 10° ESE visible
13 Jun 3.3 14:27:14 10° SW 14:28:25 11° SSW 14:29:24 10° SSW visible
13 Jun 2.7 23:01:41 22° SE 23:01:41 22° SE 23:04:02 10° E visible
14 Jun 2.8 22:51:44 23° ESE 22:51:44 23° ESE 22:53:45 10° E visible
15 Jun 1.8 00:27:21 10° W 00:31:09 35° NNW 00:34:56 10° NE visible
15 Jun 3.1 22:41:46 21° E 22:41:46 21° E 22:43:19 10° ENE visible
